Mount Holly, NJ

9:59 PM EDT on April 19, 2018 (GMT -0400)
South Jersey Regional

Weather History for KVAY - August, 2013

Change the Weather History Date:

Sunday, August 11, 2013

  Actual Average (KPNE) Record (KPNE)
Temperature  
Mean Temperature 74 °F -  
Max Temperature 84 °F 83 °F 95 °F (2005)
Min Temperature 63 °F 66 °F 59 °F (1996)
Cooling Degree Days 8    
Growing Degree Days 24 (Base 50)    
Moisture  
Dew Point 62 °F    
Average Humidity 71    
Maximum Humidity 93    
Minimum Humidity 44    
Precipitation  
Precipitation 0.00 in - - ()
Sea Level Pressure  
Sea Level Pressure 30.08 in    
Wind  
Wind Speed 1 mph (ENE)    
Max Wind Speed 6 mph    
Max Gust Speed -    
Visibility 10 miles    
Events      
Averages and records for this station are not official NWS values.
T = Trace of Precipitation, MM = Missing Value Source: NWS Daily Summary

Daily Weather History Graph

Daily Weather History Graph

Search for Another Location

Airport or City:

Astronomy

Aug. 11, 2013 Rise Set
Actual Time 6:07 AM EDT 8:00 PM EDT
Civil Twilight 5:38 AM EDT 8:30 PM EDT
Nautical Twilight 5:02 AM EDT 9:05 PM EDT
Astronomical Twilight 4:24 AM EDT 9:43 PM EDT
Moon 10:52 AM EDT (8/11) 10:15 PM EDT (8/11)
Length of Visible Light 14h 51m
Length of Day
13h 53m
Waxing Crescent, 22% of the Moon is Illuminated
Aug 11
Waxing Crescent
Aug 14
First Quarter
Aug 20
Full
Aug 28
Last Quarter
Sep 5
New

Hourly Weather History & Observations

Time (EDT) Temp. Heat Index Dew Point Humidity Pressure Visibility Wind Dir Wind Speed Gust Speed Precip Events Conditions
12:54 AM 68.0 °F - 64.9 °F 90% 30.06 in 10.0 mi Calm Calm - N/A   Clear
1:54 AM 66.9 °F - 64.0 °F 90% 30.06 in 10.0 mi Calm Calm - N/A   Clear
2:54 AM 64.9 °F - 63.0 °F 93% 30.06 in 6.0 mi Calm Calm - N/A   Clear
3:54 AM 64.9 °F - 63.0 °F 93% 30.08 in 9.0 mi Calm Calm - N/A   Clear
4:54 AM 64.0 °F - 61.0 °F 90% 30.10 in 10.0 mi Calm Calm - N/A   Clear
5:54 AM 63.0 °F - 60.1 °F 90% 30.11 in 10.0 mi Calm Calm - N/A   Clear
6:54 AM 64.0 °F - 59.0 °F 84% 30.12 in 10.0 mi Calm Calm - N/A   Clear
7:54 AM 68.0 °F - 57.9 °F 70% 30.13 in 10.0 mi Calm Calm - N/A   Clear
8:54 AM 71.1 °F - 57.9 °F 63% 30.13 in 10.0 mi NE 4.6 mph - N/A   Clear
9:54 AM 73.0 °F - 55.9 °F 55% 30.13 in 10.0 mi NE 3.5 mph - N/A   Clear
10:54 AM 75.0 °F - 57.0 °F 53% 30.14 in 10.0 mi Calm Calm - N/A   Clear
11:54 AM 77.0 °F - 57.9 °F 52% 30.12 in 10.0 mi ESE 3.5 mph - N/A   Clear
12:54 PM 79.0 °F - 57.9 °F 48% 30.11 in 10.0 mi Calm Calm - N/A   Clear
1:54 PM 80.1 °F 80.7 °F 59.0 °F 48% 30.09 in 10.0 mi Variable 3.5 mph - N/A   Clear
2:54 PM 82.0 °F 82.7 °F 61.0 °F 49% 30.06 in 10.0 mi Calm Calm - N/A   Clear
3:54 PM 82.9 °F 82.8 °F 59.0 °F 44% 30.05 in 10.0 mi WNW 4.6 mph - N/A   Clear
4:54 PM 84.0 °F 84.9 °F 63.0 °F 49% 30.04 in 10.0 mi Calm Calm - N/A   Partly Cloudy
5:54 PM 82.9 °F 84.4 °F 64.0 °F 53% 30.03 in 10.0 mi Variable 3.5 mph - N/A   Scattered Clouds
6:54 PM 81.0 °F 83.3 °F 66.9 °F 62% 30.02 in 10.0 mi SSE 5.8 mph - N/A   Mostly Cloudy
7:54 PM 77.0 °F - 68.0 °F 74% 30.03 in 10.0 mi Variable 3.5 mph - N/A   Clear
8:54 PM 73.9 °F - 66.9 °F 79% 30.05 in 10.0 mi Variable 3.5 mph - N/A   Clear
9:54 PM 72.0 °F - 66.9 °F 84% 30.06 in 10.0 mi Calm Calm - N/A   Clear
10:54 PM 71.1 °F - 66.9 °F 87% 30.05 in 10.0 mi Calm Calm - N/A   Partly Cloudy
11:54 PM 70.0 °F - 68.0 °F 93% 30.04 in 10.0 mi Calm Calm - N/A   Scattered Clouds